Location: Bouchavesnes-Bergen
(49.9859°N, 2.9203°E)
Time: 01:30:08
(UTC+00:00)

IDEFIX/ARIANE 42P - Pass Details

Date: 27 September 2022
Orbit: 784 x 803 km, 98.5° (Epoch: 05 December)

Event Time Altitude Azimuth Distance (km) Brightness Sun altitude
Rises 02:29:37 0° 12° (NNE) 3,328 6.5 -29.7°
Reaches altitude 10° 02:31:58 10° 10° (N) 2,394 5.6 -29.4°
Enters shadow 02:36:08 52° 341° (NNW) 999 3.1 -28.8°
